Location: *
(33.8649°S, 62.1526°E)
Time: 16:41:42
(UTC+00:00)

Meteor 2-4 Rocket - Pass Details

Date: 17 January 2021
Orbit: 799 x 908 km, 81.2° (Epoch: 04 March)

Event Time Altitude Azimuth Distance (km) Brightness Sun altitude
Exits shadow 22:28:08 56° 270° (W) 1,033 3.9 -25.4°
Maximum altitude 22:28:24 56° 260° (W) 1,029 3.9 -25.3°
Drops below altitude 10° 22:34:08 10° 181° (S) 2,567 6.8 -24.6°
Sets 22:36:42 0° 176° (S) 3,527 7.7 -24.3°
